OPS 4682 DEB, 38418

Orbit data source: Space-Track

OPS 4682 DEB, 38418 is space debris in LEO originally from a launch on Sat, 03 Apr 1965 UTC launched from the Air Force Western Test Range (AFWTR). Debris objects in space refer to the collection of defunct objects orbiting the Earth. Examples of debris include non-operational satellites, rocket bodies, and fragments generated from explosions, collisions, or faulty payload assembly.

Loading next visibility...
Identifier
38418, 1965-027DX
Orbit
LEO
Country
Flag of USUS
Related business
Manufacturer
Unknown
Mission
Spacecraft
Bus & Motor
Unknown
Mass
Unknown
Launch date (UTC)
1965-04-03 (61 years ago)
Launch vehicle
Unknown
Launch site
Air Force Western Test Range (AFWTR)
Object type
Payload
Rocket body
Debris
Shape & HBR
Unknown shape, 0.1 m
Radar Cross Section
Small (<0.1 m²)

Expand to show TLE details & history
Last TLE update: 10 hours ago

TLE from 10 hours ago
0 OPS 4682 DEB
1 38418U 65027DX  26036.14371235  .00000573  00000-0  18533-2 0  9994
2 38418  90.2414   5.8229 0027006 203.8641 156.1231 13.00922798534384
Epoch: 2026-02-05T03:26Z
TLE epoch observation values (Epoch: 2026-02-05T03:26:56.747Z)
Latitude
-0.00005°
Longitude
178.78629°
Altitude
1,280.229 km
Speed
7.207 km/s
True Right ascension
00h 23m 17s
True Declination
0° 00' 00"
Sunlit
Object was in daylight at epoch
Visualization orbit readout
Latitude
Unknown
Longitude
Unknown
Altitude
Unknown
Speed
Unknown
Apparent Right ascension
Unknown
Apparent Declination
Unknown
Sunlit
N/A
Visualization observer readout
Local Sidereal Time
15:18:03
Azimuth
Unknown
Elevation
Unknown
Doppler factor
Unknown
Orbital elements
Apogee altitude
1,276.214 km
Perigee altitude
1,234.983 km
Semi-major axis
7,633.736 km
Eccentricity
0.0027
Inclination
90.2414°
RAAN
5.8229°
Arg. of periapsis
203.8641°
True anomaly
156.24798°
Mean anomaly
156.1231°
Eccentric anomaly
156.18558°
Mean motion
3.25415 °/min
Orbital period
110.63 mins
BSTAR
0.0018533
Loading maneuver chart data...
Computing Atmospheric mass density...
Loading historical data...
Loading historical data...
Loading historical data...
Loading historical data...
Loading historical data...
Loading historical data...
Loading historical data...

Documentation

Showing up to 5 results
|